KB8DOA-1 Weather Reports


Display with metric or nautical units.
time (UTC)temp
F
wind
direction
speed
MPH
gust
MPH
rain 1hr
in
rain 24hr
in
rain mn
in
humidity
%
barometer
mb
20260831002015 78 328 0.0 1.0 0.00 1.45 1.45 95 1016.6
20260831001016 78 332 1.0 2.0 0.00 1.45 1.45 95 1016.5
20260831000016 78 312 0.0 1.0 0.00 1.45 1.45 95 1016.3
20260830235016 79 11 0.0 1.0 0.00 1.45 1.45 94 1016.0
20260830233016 79 341 0.0 1.0 0.00 1.45 1.45 93 1015.8
20260830232017 79 22 0.0 3.0 0.00 1.45 1.45 93 1015.6
20260830231017 79 355 1.0 3.0 0.00 1.45 1.45 92 1015.5
20260830230017 80 10 1.0 4.0 0.00 1.45 1.45 92 1015.5
20260830225017 80 250 0.0 2.0 0.00 1.45 1.45 91 1015.5
20260830224017 80 356 1.0 3.0 0.00 1.45 1.45 91 1015.8
20260830221015 80 287 0.0 1.0 0.02 1.45 1.45 93 1015.9
20260830215015 79 48 0.0 1.0 0.02 1.45 1.45 91 1015.9
20260830213016 80 300 1.0 2.0 0.02 1.45 1.44 89 1016.0
20260830212016 81 331 1.0 2.0 0.01 1.45 1.43 87 1016.0
20260830211156 82 305 1.0 1.0 0.01 1.46 1.43 89 1015.8
20260830210016 82 324 0.0 2.0 0.01 1.47 1.43 88 1015.9
20260830205016 83 313 1.0 2.0 0.00 1.47 1.42 85 1015.9
20260830204016 84 356 1.0 4.0 0.00 1.48 1.42 81 1015.8
20260830203017 85 13 1.0 3.0 0.00 1.49 1.42 79 1015.8
20260830202017 86 0 1.0 4.0 0.00 1.50 1.42 78 1015.8
20260830201017 88 321 0.0 2.0 0.00 1.50 1.42 76 1016.0
20260830200017 90 357 3.0 7.0 0.00 1.50 1.42 72 1016.0
20260830195017 91 351 2.0 4.0 0.00 1.50 1.42 68 1016.0
20260830194018 89 352 2.0 4.0 0.00 1.50 1.42 72 1016.2
20260830193018 88 2 4.0 8.0 0.00 1.50 1.42 73 1016.4
20260830191015 87 227 3.0 4.0 0.00 1.50 1.42 76 1016.5
20260830190015 86 224 3.0 5.0 0.00 1.50 1.42 80 1016.3
20260830185015 84 226 4.0 5.0 0.02 1.50 1.42 82 1016.7
20260830184016 83 226 4.0 5.0 0.03 1.50 1.42 87 1016.7
20260830183016 82 224 4.0 5.0 0.03 1.50 1.42 93 1016.8
20260830181016 79 222 4.0 10.0 0.03 1.50 1.42 96 1017.1
20260830180016 78 221 4.0 29.0 0.04 1.50 1.42 97 1017.0
20260830175017 78 221 3.0 5.0 0.11 1.49 1.41 97 1017.0
20260830174017 77 223 2.0 3.0 0.45 1.55 1.40 97 1016.9
20260830173017 77 225 4.0 20.0 1.12 1.57 1.39 98 1016.5
20260830172017 76 221 29.0 54.0 1.39 1.57 1.39 97 1016.9
20260830171017 75 216 19.0 70.0 1.39 1.58 1.39 97 1017.2
20260830170017 75 208 19.0 84.0 1.38 1.57 1.38 96 1017.5
20260830165018 76 211 19.0 70.0 1.30 1.48 1.30 96 1017.6
20260830164018 77 218 16.0 67.0 0.94 1.14 0.94 95 1018.0
20260830162018 81 28 2.0 5.0 0.00 0.20 0.00 82 1017.3
20260830161018 82 15 2.0 5.0 0.00 0.20 0.00 80 1017.2
20260830160015 84 18 3.0 5.0 0.00 0.20 0.00 75 1017.2
20260830155019 86 17 2.0 7.0 0.00 0.20 0.00 72 1017.3
20260830154016 88 75 1.0 5.0 0.00 0.20 0.00 76 1017.3
20260830153016 89 115 2.0 6.0 0.00 0.20 0.00 74 1017.4
20260830152016 89 112 2.0 6.0 0.00 0.20 0.00 74 1017.5
20260830151016 89 106 2.0 6.0 0.00 0.20 0.00 74 1017.6
20260830150016 88 164 1.0 5.0 0.00 0.20 0.00 77 1017.6
20260830145016 89 93 2.0 6.0 0.00 0.20 0.00 76 1017.5
20260830144016 89 87 3.0 7.0 0.00 0.20 0.00 76 1017.5
20260830143017 88 103 2.0 6.0 0.00 0.20 0.00 77 1017.5
20260830142017 88 90 2.0 6.0 0.00 0.20 0.00 79 1017.7
20260830141017 88 67 2.0 5.0 0.00 0.20 0.00 79 1017.5
20260830140017 87 87 2.0 7.0 0.00 0.20 0.00 81 1017.6
20260830135017 86 98 2.0 6.0 0.00 0.20 0.00 82 1017.5
20260830133017 86 104 3.0 4.0 0.00 0.20 0.00 83 1017.3
20260830132017 85 37 1.0 3.0 0.00 0.20 0.00 85 1017.2
20260830131015 84 68 2.0 4.0 0.00 0.20 0.00 87 1017.2
20260830125015 81 47 2.0 4.0 0.00 0.20 0.00 93 1017.2
20260830124016 80 43 2.0 4.0 0.00 0.20 0.00 98 1017.2
20260830123016 78 38 3.0 4.0 0.00 0.20 0.00 100 1017.3
20260830122016 77 42 3.0 6.0 0.00 0.20 0.00 100 1017.2
20260830121016 76 42 3.0 5.0 0.00 0.20 0.00 100 1017.0
20260830120016 75 45 4.0 6.0 0.00 0.20 0.00 100 1017.0
20260830115019 74 48 3.0 5.0 0.00 0.20 0.00 100 1017.0
20260830114019 74 50 3.0 5.0 0.00 0.20 0.00 100 1016.8
20260830112019 73 49 2.0 3.0 0.00 0.20 0.00 100 1016.6
20260830111020 73 57 2.0 3.0 0.00 0.20 0.00 100 1016.4
20260830110020 73 53 2.0 3.0 0.00 0.20 0.00 100 1016.2
20260830103021 73 44 1.0 3.0 0.00 0.20 0.00 100 1015.6
20260830102021 73 58 0.0 2.0 0.00 0.20 0.00 100 1015.5
20260830101021 73 51 1.0 2.0 0.00 0.20 0.00 100 1015.6
20260830100021 73 45 1.0 3.0 0.00 0.20 0.00 100 1015.4
20260830095021 73 38 1.0 2.0 0.00 0.20 0.00 100 1015.4
20260830094021 73 47 1.0 3.0 0.00 0.20 0.00 100 1015.4
20260830093021 73 55 1.0 2.0 0.00 0.20 0.00 100 1015.4
20260830092021 73 51 1.0 2.0 0.00 0.20 0.00 100 1015.3
20260830091021 73 315 0.0 0.0 0.00 0.20 0.00 100 1015.4
20260830085022 73 60 0.0 1.0 0.00 0.20 0.00 100 1015.5
20260830084023 73 7 0.0 1.0 0.00 0.20 0.00 100 1015.6
20260830083022 73 32 1.0 2.0 0.00 0.20 0.00 100 1015.7
20260830082022 73 38 0.0 1.0 0.00 0.20 0.00 100 1015.8
20260830081023 73 53 1.0 2.0 0.00 0.20 0.00 100 1015.7
20260830080023 73 60 2.0 3.0 0.00 0.20 0.00 100 1015.9
20260830075023 73 63 2.0 2.0 0.00 0.20 0.00 100 1016.0
20260830074023 73 65 2.0 3.0 0.00 0.20 0.00 100 1016.1
20260830073023 73 68 0.0 1.0 0.00 0.20 0.00 100 1016.2
20260830072024 73 52 0.0 2.0 0.00 0.20 0.00 99 1016.3
20260830071024 73 45 0.0 1.0 0.00 0.20 0.00 99 1016.2
20260830070024 73 63 0.0 1.0 0.00 0.20 0.00 99 1016.2
20260830065024 73 49 1.0 2.0 0.00 0.20 0.00 99 1016.1
20260830064024 73 64 0.0 1.0 0.00 0.20 0.00 99 1016.0
20260830063024 73 50 0.0 1.0 0.00 0.20 0.00 99 1016.1
20260830061025 73 44 1.0 2.0 0.00 0.20 0.00 99 1016.5
20260830055025 73 46 1.0 3.0 0.00 0.20 0.00 99 1016.8
20260830054025 73 34 1.0 2.0 0.00 0.20 0.00 99 1016.7
20260830053026 73 28 1.0 2.0 0.00 0.20 0.00 99 1016.8
20260830052026 73 10 0.0 1.0 0.00 0.20 0.00 99 1016.7
20260830051026 73 52 0.0 1.0 0.00 0.20 0.00 99 1016.6
20260830050026 73 41 0.0 1.0 0.00 0.20 0.00 99 1016.8
20260830045026 73 17 0.0 0.0 0.00 0.20 0.00 99 1017.0
20260830044026 73 0.0 0.0 0.00 0.20 0.00 99 1017.3
20260830043026 74 0.0 0.0 0.00 0.20 0.00 99 1017.4
20260830042026 74 19 1.0 2.0 0.00 0.20 0.00 99 1017.3
20260830041027 74 0.0 0.0 0.00 0.20 0.00 98 1017.4
20260830040027 74 3 0.0 1.0 0.00 0.20 0.00 98 1017.4
20260830035027 74 22 0.0 1.0 0.00 0.20 0.20 98 1017.4
20260830034028 74 25 1.0 2.0 0.00 0.20 0.20 98 1017.5
20260830033027 74 21 1.0 2.0 0.00 0.20 0.20 98 1017.6
20260830032027 74 38 0.0 0.0 0.00 0.20 0.20 98 1017.5
20260830030028 74 14 1.0 3.0 0.00 0.20 0.20 98 1017.3
20260830025028 74 18 0.0 1.0 0.00 0.20 0.20 98 1017.4
20260830024028 74 30 0.0 2.0 0.00 0.20 0.20 98 1017.3
20260830023028 74 11 1.0 2.0 0.00 0.20 0.20 98 1017.5
20260830022029 74 359 1.0 2.0 0.00 0.20 0.20 98 1017.6
20260830021029 74 40 1.0 3.0 0.00 0.20 0.20 98 1017.5
20260830014029 75 15 0.0 1.0 0.00 0.20 0.20 98 1017.3
20260830013029 75 46 1.0 2.0 0.00 0.20 0.20 98 1017.2
20260830012029 76 1 0.0 1.0 0.00 0.20 0.20 98 1017.1
20260830011018 76 77 1.0 3.0 0.00 0.20 0.20 98 1017.1
20260830010015 76 354 0.0 2.0 0.00 0.20 0.20 98 1017.1
20260830005015 76 62 0.0 2.0 0.00 0.20 0.20 98 1017.2
20260830004016 76 45 0.0 2.0 0.00 0.20 0.20 97 1016.9
20260830003015 76 53 0.0 2.0 0.00 0.20 0.20 97 1016.8